Temperature
16 12 12 13 14 15 15 13 11 10 11 10 7 5 5 7 6 6 5 5 4 3 3 2 2 2 1 0 -1 -2 -2 -2 -2 -2 -2 -3 -3 -4 -5 -5 -6 -6 -7 -7
13 13 14 14 14 14 14 13 11 10 11 10 6 5 5 6 6 6 6 5 4 3 3 2 2 2 0 -1 -2 -2 -2 -2 -3 -3 -4 -5 -5 -5 -6 -6 -7 -7 -8 -8
13 14 14 14 12 14 12 14 12 11 10 9 8 7 5 5 6 6 5 5 4 3 3 2 2 0 -1 -2 -2 -2 -3 -3 -4 -4 -5 -5 -5 -6 -6 -7 -7 -8 -8 -9
13 13 13 13 13 13 14 13 13 11 9 8 9 8 5 4 4 5 4 4 3 3 3 2 1 -0 -2 -2 -3 -3 -3 -4 -5 -5 -6 -6 -7 -7 -8 -9 -9 -9 -9 -9
13 13 12 13 13 13 13 13 12 12 10 9 8 7 6 4 4 3 4 3 3 3 2 1 0 -1 -2 -2 -3 -4 -4 -5 -5 -6 -7 -7 -8 -9 -9 -9 -9 -9 -9 -10
13 14 13 13 13 13 12 12 11 9 9 10 9 6 7 3 4 3 3 3 2 2 2 1 0 -1 -2 -3 -4 -4 -5 -5 -6 -7 -7 -8 -9 -9 -10 -10 -10 -11 -11 -11
14 13 13 12 13 12 11 11 11 12 10 11 10 8 7 4 3 4 3 3 2 2 1 1 -0 -2 -3 -4 -4 -5 -5 -6 -7 -7 -8 -9 -9 -10 -10 -11 -11 -12 -12 -12
13 13 13 12 12 11 11 12 12 12 10 9 10 9 5 4 5 5 4 3 2 2 1 0 -1 -3 -4 -4 -5 -5 -6 -6 -7 -8 -8 -9 -10 -10 -11 -11 -12 -12 -12 -13
13 14 12 12 12 12 12 10 10 9 9 8 9 7 4 4 3 3 2 2 2 1 0 -1 -2 -3 -4 -5 -5 -5 -6 -7 -7 -8 -9 -10 -11 -11 -11 -12 -12 -13 -13 -13
12 13 13 12 12 12 12 10 8 9 10 9 8 8 7 3 3 3 2 2 1 0 -0 -2 -3 -4 -5 -5 -5 -6 -6 -7 -8 -9 -10 -11 -11 -11 -12 -12 -13 -13 -13 -13
11 11 12 11 11 13 12 11 10 8 8 8 7 8 7 4 3 2 2 2 1 0 -1 -3 -4 -4 -4 -5 -5 -6 -7 -8 -9 -10 -10 -11 -11 -12 -12 -13 -13 -13 -13 -14
9 9 10 12 11 10 11 11 9 9 9 7 6 8 5 3 4 3 2 1 0 -0 -2 -3 -4 -4 -4 -5 -5 -6 -7 -8 -9 -10 -11 -11 -11 -12 -12 -13 -13 -13 -13 -14
9 9 12 13 11 10 10 10 9 8 7 6 6 8 3 3 3 3 2 1 -0 -2 -3 -3 -3 -4 -4 -5 -6 -7 -8 -9 -10 -10 -11 -11 -12 -12 -13 -13 -13 -13 -13 -13
9 9 11 14 13 11 10 10 9 7 7 6 6 7 4 2 1 1 1 0 -1 -2 -3 -3 -3 -4 -4 -5 -6 -7 -8 -9 -10 -10 -11 -11 -12 -12 -13 -13 -13 -13 -13 -13
8 9 9 9 9 9 9 9 8 7 7 7 7 6 6 3 2 1 1 -1 -2 -2 -3 -3 -3 -4 -5 -6 -7 -8 -8 -9 -10 -10 -11 -11 -12 -12 -13 -13 -13 -13 -13 -13
7 8 9 9 9 8 9 8 8 7 7 6 6 6 5 4 3 1 -0 -1 -2 -2 -2 -3 -4 -4 -5 -6 -7 -8 -8 -9 -9 -10 -11 -11 -12 -12 -13 -13 -13 -13 -13 -13
7 8 9 7 7 9 10 10 7 7 6 6 7 6 2 1 1 0 -0 -1 -1 -1 -2 -3 -4 -5 -5 -6 -7 -8 -8 -9 -9 -10 -11 -11 -12 -13 -13 -13 -13 -13 -13 -13
7 7 6 6 8 12 12 9 8 8 7 6 6 5 3 2 1 1 -0 -1 -1 -1 -2 -3 -4 -5 -5 -6 -7 -7 -8 -8 -9 -10 -11 -11 -12 -12 -13 -13 -13 -13 -13 -13
6 6 6 5 7 8 9 8 8 8 7 7 5 3 2 1 -0 -2 -2 -2 -1 -2 -3 -4 -4 -5 -5 -6 -7 -7 -8 -8 -9 -10 -10 -11 -12 -12 -13 -13 -13 -13 -13 -13
5 4 4 4 8 9 12 8 8 8 7 7 6 2 -1 -2 -1 -1 -1 -1 -1 -2 -3 -4 -4 -5 -5 -6 -7 -7 -7 -8 -9 -10 -10 -11 -11 -12 -13 -13 -13 -13 -13 -13
5 4 4 4 5 7 8 7 8 8 9 9 7 5 2 1 1 2 0 -1 -2 -3 -3 -4 -5 -5 -5 -6 -6 -7 -7 -8 -8 -9 -9 -10 -11 -12 -12 -12 -13 -13 -13 -13
6 4 3 3 4 7 8 5 6 8 9 9 8 7 5 4 3 2 -0 -1 -2 -3 -4 -4 -5 -5 -5 -6 -6 -7 -7 -8 -8 -8 -9 -10 -11 -12 -12 -12 -13 -13 -13 -13
6 7 6 6 10 11 10 12 12 10 9 9 8 7 5 4 3 1 -0 -1 -2 -3 -4 -4 -4 -5 -5 -6 -6 -7 -7 -7 -8 -8 -9 -10 -10 -11 -12 -12 -12 -13 -13 -13
7 7 6 5 8 10 11 11 11 10 9 9 8 6 5 4 2 1 -0 -1 -2 -3 -4 -4 -4 -5 -5 -6 -6 -7 -7 -7 -7 -8 -8 -9 -10 -10 -11 -12 -12 -13 -13 -13
7 5 5 6 7 10 12 13 12 9 8 7 6 5 4 3 2 1 -0 -1 -2 -3 -3 -4 -4 -5 -5 -5 -6 -6 -7 -7 -7 -8 -8 -9 -9 -10 -10 -11 -12 -12 -13 -13
7 7 7 11 13 11 14 14 13 10 8 7 6 4 3 2 2 1 -0 -1 -2 -3 -3 -4 -4 -4 -5 -5 -6 -6 -7 -7 -7 -7 -8 -9 -9 -10 -10 -10 -10 -11 -12 -12
Wind_Speed
7 8 5 4 3 3 2 5 5 5 3 4 6 7 9 6 7 8 7 6 7 7 5 4 2 3 6 7 7 7 8 9 11 8 10 10 10 9 13 18 20 21 23 23
8 5 5 4 4 5 5 5 3 3 1 2 4 6 6 5 7 8 7 7 7 6 5 2 3 5 5 5 6 7 8 7 10 9 8 7 7 7 13 16 17 20 22 21
7 2 5 5 8 6 4 2 3 4 1 1 2 2 5 4 4 4 5 6 6 7 5 2 3 3 2 4 6 8 7 7 10 12 11 11 5 5 6 6 9 19 21 20
6 5 5 6 5 3 1 4 2 5 3 3 4 5 5 7 5 5 5 5 5 5 4 2 1 0 2 4 5 6 7 6 9 12 9 10 10 9 9 7 8 17 20 19
3 4 6 4 3 2 5 3 3 3 3 2 2 3 5 6 7 7 7 6 6 6 4 2 1 1 2 4 5 6 7 6 8 10 8 9 9 8 9 9 10 9 15 17
2 1 2 3 4 2 3 3 2 4 3 3 5 6 6 6 8 7 7 7 7 6 4 2 0 2 4 5 6 6 7 7 7 8 7 9 10 11 13 13 11 10 8 12
3 3 4 4 5 7 8 6 5 6 4 6 2 5 6 4 6 8 9 8 7 6 4 0 3 5 6 7 7 7 7 7 8 8 8 9 9 10 11 12 12 13 11 10
1 4 3 4 2 2 4 4 3 3 5 7 5 5 4 5 5 6 7 8 7 5 2 2 3 5 6 7 7 7 8 8 8 9 9 8 8 8 9 11 12 12 12 11
3 3 1 1 1 1 2 2 5 5 3 5 7 6 4 4 5 6 7 7 6 4 2 2 4 5 6 7 7 7 8 8 9 9 9 8 8 9 10 10 9 9 12 16
3 2 2 1 2 1 2 6 5 2 2 6 8 7 5 10 12 8 8 7 6 4 1 3 4 5 5 5 6 7 7 8 9 9 9 13 9 10 11 10 12 12 14 17
1 1 3 2 2 2 2 2 3 3 4 3 6 8 4 10 11 9 8 8 7 5 2 1 3 4 5 6 7 7 8 9 9 10 10 11 11 11 12 10 11 12 13 16
2 3 3 5 2 0 3 4 6 2 4 4 4 8 2 7 8 9 9 8 7 5 2 1 3 4 6 7 8 8 9 9 10 10 10 11 12 11 12 12 12 15 13 16
2 4 4 6 3 2 3 4 5 4 2 3 4 8 2 4 6 8 9 8 6 5 3 1 3 5 6 7 8 9 9 10 10 10 11 11 12 12 12 13 13 14 14 14
3 2 4 6 7 4 5 5 6 6 4 5 9 9 5 8 8 8 8 8 6 4 2 1 3 5 7 7 8 8 9 9 11 11 11 11 12 12 13 12 12 13 13 14
3 2 5 8 8 6 7 8 8 10 9 10 10 8 8 12 12 11 9 7 6 4 1 3 4 5 7 7 8 8 9 9 10 11 11 12 12 12 12 12 12 12 13 15
2 1 3 6 4 6 7 10 9 10 7 10 12 14 4 7 8 8 8 8 6 3 2 3 5 6 7 7 8 9 9 10 9 10 11 12 13 13 13 12 12 13 14 14
2 1 2 5 8 8 9 7 8 8 9 10 10 8 7 7 10 11 9 8 6 4 2 2 4 5 6 7 7 8 9 9 9 10 10 12 12 13 13 14 13 13 13 12
5 3 2 3 8 5 7 2 6 8 9 10 9 6 11 7 6 6 7 8 7 5 3 1 3 4 5 6 7 8 8 8 9 9 10 11 11 12 12 12 12 11 9 11
3 5 3 1 3 10 10 5 6 6 9 8 9 8 8 10 6 2 5 7 7 6 4 2 1 2 4 6 7 7 8 8 8 9 10 11 11 12 12 12 11 9 9 8
5 5 5 4 2 7 7 3 3 3 8 7 10 12 12 12 5 6 10 8 7 6 4 2 0 2 4 6 6 7 8 8 9 10 11 10 11 11 11 11 10 8 8 9
3 3 4 5 7 10 7 6 6 2 8 5 10 12 15 12 6 8 12 8 7 6 5 3 2 2 4 5 6 7 7 8 9 10 10 10 10 10 10 10 8 9 9 9
9 7 7 6 4 10 7 9 10 11 3 7 9 9 10 8 10 12 11 9 8 7 5 3 2 3 4 5 6 6 7 8 8 8 9 9 9 10 11 10 9 8 8 7
9 10 7 11 12 6 11 11 8 6 8 8 9 8 11 11 10 11 10 9 8 7 5 3 2 2 4 5 5 5 7 8 8 8 8 8 9 9 9 8 8 8 7 5
6 6 6 8 15 11 12 11 6 8 9 8 8 11 12 11 11 11 11 9 7 6 5 4 3 3 3 5 5 5 7 7 7 8 8 8 7 8 8 8 8 7 7 6
8 9 6 9 11 9 9 12 11 9 8 9 9 9 12 14 11 11 10 10 8 7 5 4 3 2 2 4 5 6 7 7 7 7 7 8 8 8 7 8 7 8 6 9
8 11 10 12 11 9 8 8 13 13 11 13 12 10 9 12 13 12 10 9 8 7 5 5 4 1 1 3 4 6 6 6 6 6 7 6 6 7 8 8 8 13 14 17
Wind_Direction
29 60 44 318 277 227 208 135 173 218 205 166 179 184 201 184 138 158 170 157 143 129 132 140 116 76 46 29 12 2 352 347 354 355 355 350 347 342 344 346 347 348 348 346
48 40 316 318 23 62 87 112 165 237 236 148 169 209 208 187 174 178 167 153 146 134 140 148 67 49 34 9 349 355 354 349 354 351 342 336 326 322 332 333 338 344 344 342
102 319 329 59 41 59 48 106 209 213 195 71 148 245 189 204 184 172 132 140 146 143 142 85 47 44 1 345 346 3 351 346 349 348 345 342 324 315 329 328 335 339 337 336
66 4 42 63 52 53 241 223 196 141 141 269 184 289 206 196 199 178 152 148 140 135 134 92 44 204 328 333 344 352 344 339 345 349 347 346 345 336 331 327 323 328 330 330
54 22 42 35 323 295 257 228 206 166 186 288 229 237 277 170 207 202 188 173 156 158 151 145 193 186 353 346 345 340 336 333 339 343 338 335 332 324 324 325 323 323 326 328
75 29 59 311 290 282 298 53 86 60 83 296 219 186 256 202 206 183 183 171 164 170 173 187 110 17 351 344 338 333 333 330 332 335 331 329 326 325 328 330 328 329 324 325
16 349 359 2 354 7 38 56 21 354 353 272 205 196 254 212 183 170 176 176 176 183 192 211 12 353 340 336 331 329 334 333 335 335 331 326 324 322 324 327 328 328 327 326
188 302 326 11 57 351 12 92 117 271 271 292 316 252 260 213 195 166 154 158 173 185 174 45 11 350 335 330 330 334 339 339 338 336 330 322 323 326 325 324 325 325 324 321
161 258 274 289 2 74 65 104 156 156 278 281 284 284 284 221 213 175 154 159 175 170 119 41 7 353 336 332 338 341 343 341 336 332 326 326 323 320 320 319 319 321 321 323
140 279 290 290 5 280 137 145 95 125 296 292 292 285 248 205 216 199 176 176 176 166 125 36 359 340 331 335 341 344 345 336 328 325 324 338 321 316 317 318 321 320 319 319
120 159 302 348 226 242 185 191 147 143 183 223 288 277 243 196 190 185 180 176 178 180 157 354 329 328 334 345 349 345 340 335 330 324 318 319 319 317 317 318 318 317 316 317
71 119 275 268 205 255 235 213 159 185 255 212 245 277 62 158 158 156 161 171 177 166 156 274 330 339 346 351 348 344 337 335 329 323 323 323 321 319 320 320 318 318 316 318
89 115 354 345 330 241 234 215 176 141 140 213 227 267 107 130 141 149 159 172 171 167 175 308 349 348 347 348 345 340 335 331 327 328 329 326 325 325 324 321 319 320 320 320
105 136 188 236 253 250 243 218 180 150 196 239 235 255 205 195 177 168 175 175 173 180 183 16 357 347 345 343 339 334 330 329 336 336 331 330 330 328 324 322 321 323 325 325
109 206 255 261 274 269 252 235 202 197 203 219 249 248 240 204 187 180 178 175 177 182 126 25 2 347 343 340 335 331 328 331 335 334 336 336 333 329 328 328 328 330 334 338
111 179 320 295 326 312 274 251 224 223 221 238 262 271 245 138 137 158 172 176 182 176 91 25 360 348 342 335 330 328 329 332 333 333 334 335 336 336 334 334 339 341 341 340
137 94 12 292 318 338 296 250 196 213 214 206 230 236 147 155 173 179 179 181 181 157 103 24 348 332 325 324 325 328 328 328 332 332 333 336 336 337 336 341 344 343 340 341
139 119 112 317 355 297 253 187 198 225 245 219 230 197 175 163 145 144 160 173 173 152 134 355 327 321 318 323 328 326 327 331 332 334 334 336 337 335 335 339 342 339 336 341
107 138 121 92 304 281 291 237 207 222 276 221 202 164 131 116 103 180 192 174 165 152 151 176 260 292 321 333 333 333 334 334 338 342 340 338 337 336 338 343 340 337 336 339
66 88 118 140 227 258 255 160 134 79 282 227 172 161 156 151 179 220 177 163 151 145 142 147 29 343 349 340 339 344 340 342 346 344 340 338 341 338 338 341 337 336 337 345
115 112 161 185 233 265 250 154 133 181 261 182 166 164 167 186 190 152 149 151 149 145 143 132 86 27 350 339 350 351 345 344 338 337 339 343 343 338 344 340 335 337 343 342
175 171 193 165 212 260 192 147 188 218 151 157 158 157 157 143 125 138 147 150 150 147 146 137 95 32 355 353 360 352 342 327 328 336 341 341 340 344 351 335 334 336 338 335
198 192 186 194 222 243 177 200 208 162 168 172 159 152 140 141 152 155 155 155 155 157 161 148 112 52 7 357 1 347 324 322 331 337 338 334 336 339 339 331 332 337 340 336
242 183 193 243 261 249 223 233 210 186 180 166 152 151 153 154 158 157 158 160 160 164 164 152 119 67 9 347 348 327 315 322 333 335 330 331 335 337 334 340 344 340 339 340
220 176 212 252 270 287 256 222 199 175 151 141 140 153 158 152 157 161 161 165 168 169 165 152 135 102 345 336 338 326 319 325 335 330 327 330 339 332 332 337 338 343 330 352
197 186 194 235 228 208 241 213 174 164 165 159 150 148 154 158 161 160 163 164 165 167 163 156 154 159 316 331 330 323 315 321 332 335 329 321 328 335 336 330 332 346 353 353
Height
1585 1591 1599 1597 1595 1594 1594 1599 1606 1606 1605 1608 1613 1617 1616 1617 1619 1621 1621 1621 1621 1619 1618 1615 1612 1609 1605 1600 1594 1588 1582 1576 1570 1564 1558 1552 1547 1542 1537 1532 1526 1520 1514 1509
1593 1598 1596 1594 1593 1593 1594 1602 1606 1606 1605 1608 1613 1616 1616 1617 1618 1618 1619 1619 1618 1617 1616 1614 1611 1608 1603 1597 1591 1585 1580 1574 1569 1563 1557 1551 1545 1539 1534 1529 1523 1517 1511 1505
1597 1599 1595 1595 1597 1596 1600 1599 1601 1605 1607 1608 1612 1614 1618 1617 1617 1618 1617 1617 1617 1616 1615 1612 1609 1605 1600 1595 1589 1584 1579 1573 1567 1561 1555 1549 1542 1536 1530 1524 1518 1514 1508 1502
1599 1598 1597 1598 1599 1599 1599 1597 1598 1603 1608 1611 1610 1615 1615 1615 1616 1616 1616 1615 1615 1614 1613 1610 1607 1603 1598 1593 1588 1583 1577 1571 1565 1558 1552 1545 1538 1532 1526 1520 1515 1510 1505 1499
1601 1600 1600 1600 1599 1598 1597 1596 1597 1599 1604 1608 1611 1614 1610 1614 1615 1614 1613 1613 1613 1612 1611 1608 1605 1601 1596 1592 1586 1581 1575 1569 1563 1557 1550 1544 1537 1531 1524 1518 1511 1505 1500 1494
1601 1600 1600 1600 1597 1597 1596 1598 1600 1604 1609 1610 1604 1615 1602 1612 1608 1609 1610 1611 1611 1611 1609 1606 1603 1599 1595 1590 1584 1579 1573 1567 1561 1554 1548 1542 1535 1528 1520 1513 1507 1500 1494 1489
1603 1602 1600 1600 1598 1597 1599 1604 1610 1607 1610 1605 1598 1605 1600 1605 1603 1604 1607 1609 1609 1609 1607 1604 1601 1597 1593 1587 1582 1576 1570 1564 1558 1552 1546 1539 1532 1525 1518 1511 1503 1496 1489 1483
1607 1607 1602 1601 1602 1604 1603 1604 1614 1616 1618 1610 1598 1598 1603 1603 1603 1604 1605 1607 1607 1606 1605 1602 1599 1595 1590 1585 1579 1573 1567 1562 1556 1549 1543 1537 1530 1523 1516 1509 1501 1494 1486 1480
1606 1604 1602 1601 1602 1602 1603 1609 1608 1617 1617 1617 1605 1600 1603 1603 1603 1604 1604 1605 1605 1604 1603 1600 1597 1593 1588 1582 1577 1571 1565 1559 1553 1547 1540 1533 1527 1520 1513 1505 1498 1491 1484 1477
1605 1606 1602 1602 1602 1602 1602 1606 1615 1614 1617 1618 1608 1600 1596 1600 1599 1601 1602 1602 1602 1602 1601 1598 1595 1591 1586 1580 1575 1569 1563 1557 1552 1545 1538 1532 1525 1517 1510 1503 1495 1488 1481 1474
1605 1609 1604 1604 1603 1601 1602 1604 1607 1615 1617 1620 1617 1599 1588 1590 1592 1596 1599 1599 1600 1600 1599 1596 1593 1588 1584 1578 1573 1567 1561 1555 1549 1543 1536 1529 1522 1515 1508 1501 1493 1486 1479 1472
1608 1610 1611 1603 1601 1601 1601 1600 1606 1613 1612 1616 1618 1599 1589 1588 1590 1593 1596 1597 1597 1598 1596 1593 1590 1586 1581 1576 1571 1565 1559 1553 1547 1540 1533 1527 1519 1512 1506 1499 1492 1485 1478 1471
1607 1610 1609 1604 1606 1603 1602 1600 1602 1608 1613 1618 1616 1595 1592 1590 1591 1592 1593 1594 1595 1595 1593 1591 1587 1583 1578 1574 1569 1564 1558 1551 1545 1538 1531 1524 1518 1511 1504 1498 1491 1484 1477 1469
1607 1609 1610 1605 1601 1598 1599 1600 1601 1606 1612 1613 1604 1590 1590 1590 1590 1590 1591 1592 1593 1592 1590 1588 1584 1581 1577 1573 1568 1563 1557 1550 1544 1537 1530 1523 1517 1510 1504 1497 1491 1484 1477 1469
1607 1609 1606 1602 1599 1598 1596 1596 1598 1601 1600 1602 1590 1586 1579 1581 1583 1586 1588 1590 1590 1589 1587 1585 1582 1579 1576 1572 1567 1562 1556 1549 1542 1535 1529 1523 1517 1511 1504 1497 1491 1484 1477 1470
1607 1608 1606 1602 1597 1598 1595 1590 1592 1593 1594 1592 1586 1581 1574 1575 1580 1583 1585 1587 1587 1586 1584 1583 1580 1578 1574 1570 1566 1561 1555 1548 1542 1535 1529 1523 1517 1511 1504 1497 1491 1485 1478 1471
1608 1608 1608 1608 1603 1595 1590 1581 1586 1585 1582 1582 1580 1574 1575 1576 1577 1580 1582 1584 1584 1583 1582 1581 1579 1576 1573 1569 1565 1560 1554 1548 1541 1535 1529 1523 1517 1511 1505 1499 1492 1486 1479 1472
1607 1609 1614 1615 1606 1595 1579 1576 1577 1577 1572 1571 1568 1567 1569 1571 1574 1577 1580 1581 1580 1580 1580 1579 1577 1575 1572 1569 1565 1559 1554 1547 1541 1535 1529 1523 1517 1511 1505 1499 1493 1487 1480 1474
1605 1609 1615 1619 1613 1600 1580 1574 1574 1575 1569 1561 1562 1564 1568 1570 1574 1576 1577 1577 1578 1578 1578 1576 1575 1573 1570 1567 1563 1558 1553 1547 1541 1534 1529 1523 1518 1512 1506 1500 1494 1488 1482 1477
1607 1609 1618 1621 1611 1598 1571 1571 1570 1573 1571 1556 1557 1560 1565 1569 1575 1572 1572 1574 1575 1576 1575 1574 1573 1571 1569 1566 1562 1557 1552 1546 1540 1535 1529 1524 1519 1513 1507 1502 1496 1491 1485 1480
1610 1612 1616 1618 1614 1589 1568 1568 1572 1576 1561 1551 1552 1555 1559 1562 1564 1566 1568 1570 1572 1573 1573 1572 1571 1569 1567 1564 1561 1556 1551 1546 1541 1536 1531 1525 1520 1514 1509 1503 1498 1493 1487 1482
1599 1608 1612 1615 1614 1587 1562 1565 1565 1556 1548 1549 1550 1552 1556 1558 1560 1563 1565 1567 1569 1570 1570 1570 1569 1567 1565 1563 1560 1556 1551 1547 1542 1537 1532 1526 1521 1515 1510 1504 1499 1494 1488 1484
1585 1581 1583 1584 1570 1551 1550 1548 1546 1546 1546 1546 1548 1551 1554 1555 1557 1560 1563 1565 1567 1567 1568 1568 1567 1565 1564 1561 1559 1555 1551 1547 1543 1538 1533 1527 1522 1516 1511 1504 1499 1494 1489 1485
1572 1569 1572 1570 1552 1545 1544 1542 1542 1542 1542 1544 1546 1548 1551 1552 1555 1557 1560 1562 1564 1565 1565 1565 1565 1564 1562 1560 1557 1554 1551 1547 1543 1538 1533 1528 1523 1517 1512 1506 1500 1495 1490 1486
1561 1563 1564 1559 1544 1539 1534 1534 1535 1536 1538 1540 1543 1546 1548 1550 1551 1553 1556 1559 1561 1562 1563 1563 1562 1562 1560 1559 1556 1554 1551 1547 1543 1538 1534 1529 1524 1519 1513 1508 1502 1496 1491 1488
1549 1550 1552 1543 1532 1532 1529 1529 1529 1530 1532 1535 1538 1542 1545 1547 1549 1551 1553 1556 1558 1559 1560 1560 1560 1559 1559 1557 1555 1553 1550 1546 1543 1538 1534 1529 1524 1520 1515 1509 1504 1500 1494 1488